Time,TemperatureF,DewpointF,PressureIn,WindDirection,WindDirectionDegrees,WindSpeedMPH,WindSpeedGustMPH,Humidity,HourlyPrecipIn,Conditions,Clouds,dailyrainin,SoftwareType,DateUTC
2013-01-29 00:01:00,20.0,13.0,-100.00,SSE,154,10.0,12.0,72,-99.99,,,-99.99,,2013-01-29 07:01:00,
2013-01-29 00:11:00,20.0,13.0,-100.00,SSE,154,10.0,12.0,72,-99.99,,,-99.99,,2013-01-29 07:11:00,
2013-01-29 00:21:00,19.0,13.0,-100.00,SSE,149,8.0,10.0,77,-99.99,,,-99.99,,2013-01-29 07:21:00,
2013-01-29 00:31:00,19.0,13.0,-100.00,SSE,149,8.0,10.0,77,-99.99,,,-99.99,,2013-01-29 07:31:00,
2013-01-29 00:41:00,19.0,13.0,-100.00,SSE,149,8.0,10.0,77,-99.99,,,-99.99,,2013-01-29 07:41:00,
2013-01-29 02:42:00,17.0,12.0,-100.00,SSE,168,8.0,10.0,78,-99.99,,,-99.99,,2013-01-29 09:42:00,
2013-01-29 02:51:00,18.0,12.0,-100.00,South,185,12.0,14.0,77,-99.99,,,-99.99,,2013-01-29 09:51:00,
2013-01-29 03:01:00,19.0,12.0,-100.00,SSW,205,12.0,15.0,75,-99.99,,,-99.99,,2013-01-29 10:01:00,
2013-01-29 03:11:00,19.0,12.0,-100.00,SSW,194,8.0,13.0,74,-99.99,,,-99.99,,2013-01-29 10:11:00,
2013-01-29 03:21:00,19.0,12.0,-100.00,SSW,194,8.0,13.0,74,-99.99,,,-99.99,,2013-01-29 10:21:00,
2013-01-29 03:32:00,18.0,13.0,-100.00,South,179,12.0,14.0,79,-99.99,,,-99.99,,2013-01-29 10:32:00,
2013-01-29 03:41:00,19.0,13.0,-100.00,South,186,13.0,15.0,77,-99.99,,,-99.99,,2013-01-29 10:41:00,
2013-01-29 03:51:00,19.0,13.0,-100.00,South,186,13.0,15.0,77,-99.99,,,-99.99,,2013-01-29 10:51:00,
2013-01-29 04:01:00,19.0,14.0,-100.00,South,171,14.0,16.0,78,-99.99,,,-99.99,,2013-01-29 11:01:00,
2013-01-29 04:11:00,19.0,14.0,-100.00,South,171,14.0,16.0,78,-99.99,,,-99.99,,2013-01-29 11:11:00,
2013-01-29 04:21:00,19.0,14.0,-100.00,South,171,14.0,16.0,78,-99.99,,,-99.99,,2013-01-29 11:21:00,
2013-01-29 04:31:00,19.0,14.0,-100.00,South,180,14.0,18.0,82,-99.99,,,-99.99,,2013-01-29 11:31:00,
2013-01-29 04:42:00,19.0,14.0,-100.00,South,178,13.0,16.0,82,-99.99,,,-99.99,,2013-01-29 11:42:00,
2013-01-29 04:52:00,19.0,14.0,-100.00,South,178,13.0,16.0,82,-99.99,,,-99.99,,2013-01-29 11:52:00,
2013-01-29 05:02:00,19.0,14.0,-100.00,South,178,13.0,16.0,82,-99.99,,,-99.99,,2013-01-29 12:02:00,
2013-01-29 05:12:00,19.0,14.0,-100.00,South,178,13.0,16.0,82,-99.99,,,-99.99,,2013-01-29 12:12:00,
2013-01-29 06:32:00,18.0,13.0,-100.00,South,186,12.0,16.0,79,-99.99,,,-99.99,,2013-01-29 13:32:00,
2013-01-29 06:42:00,18.0,13.0,-100.00,South,186,12.0,16.0,79,-99.99,,,-99.99,,2013-01-29 13:42:00,
2013-01-29 06:52:00,17.0,12.0,-100.00,South,183,18.0,21.0,78,-99.99,,,-99.99,,2013-01-29 13:52:00,
2013-01-29 07:01:00,17.0,12.0,-100.00,South,183,18.0,21.0,78,-99.99,,,-99.99,,2013-01-29 14:01:00,
2013-01-29 07:11:00,17.0,12.0,-100.00,South,190,12.0,21.0,79,-99.99,,,-99.99,,2013-01-29 14:11:00,
2013-01-29 07:21:00,18.0,12.0,-100.00,South,190,12.0,16.0,79,-99.99,,,-99.99,,2013-01-29 14:21:00,
2013-01-29 07:32:00,18.0,12.0,-100.00,South,190,12.0,16.0,79,-99.99,,,-99.99,,2013-01-29 14:32:00,
2013-01-29 07:43:00,18.0,12.0,-100.00,South,189,11.0,18.0,79,-99.99,,,-99.99,,2013-01-29 14:43:00,
2013-01-29 07:52:00,18.0,13.0,-100.00,South,184,16.0,19.0,80,-99.99,,,-99.99,,2013-01-29 14:52:00,
2013-01-29 08:02:00,18.0,13.0,-100.00,South,184,16.0,19.0,80,-99.99,,,-99.99,,2013-01-29 15:02:00,
2013-01-29 08:11:00,18.0,13.0,-100.00,South,184,14.0,19.0,82,-99.99,,,-99.99,,2013-01-29 15:11:00,
2013-01-29 08:21:00,18.0,13.0,-100.00,South,184,14.0,19.0,82,-99.99,,,-99.99,,2013-01-29 15:21:00,
2013-01-29 08:32:00,18.0,14.0,-100.00,South,182,17.0,20.0,84,-99.99,,,-99.99,,2013-01-29 15:32:00,
2013-01-29 08:42:00,18.0,14.0,-100.00,South,180,16.0,19.0,85,-99.99,,,-99.99,,2013-01-29 15:42:00,
2013-01-29 08:52:00,18.0,14.0,-100.00,South,180,16.0,19.0,85,-99.99,,,-99.99,,2013-01-29 15:52:00,
2013-01-29 09:02:00,18.0,14.0,-100.00,South,184,17.0,21.0,87,-99.99,,,-99.99,,2013-01-29 16:02:00,
2013-01-29 09:12:00,18.0,15.0,-100.00,South,185,18.0,20.0,89,-99.99,,,-99.99,,2013-01-29 16:12:00,
2013-01-29 09:22:00,18.0,15.0,-100.00,South,185,18.0,20.0,89,-99.99,,,-99.99,,2013-01-29 16:22:00,
2013-01-29 09:32:00,18.0,15.0,-100.00,South,185,18.0,20.0,89,-99.99,,,-99.99,,2013-01-29 16:32:00,
2013-01-29 09:42:00,18.0,16.0,-100.00,South,182,16.0,18.0,91,-99.99,,,-99.99,,2013-01-29 16:42:00,
2013-01-29 09:52:00,18.0,16.0,-100.00,South,180,13.0,16.0,91,-99.99,,,-99.99,,2013-01-29 16:52:00,
2013-01-29 10:02:00,18.0,16.0,-100.00,South,180,13.0,16.0,91,-99.99,,,-99.99,,2013-01-29 17:02:00,
2013-01-29 10:11:00,19.0,17.0,-100.00,South,177,11.0,16.0,91,-99.99,,,-99.99,,2013-01-29 17:11:00,
2013-01-29 10:21:00,19.0,17.0,-100.00,South,177,11.0,16.0,91,-99.99,,,-99.99,,2013-01-29 17:21:00,
2013-01-29 10:30:00,19.0,17.0,-100.00,South,181,16.0,16.0,91,-99.99,,,-99.99,,2013-01-29 17:30:00,
2013-01-29 10:32:00,19.0,17.0,-100.00,South,179,15.0,18.0,91,-99.99,,,-99.99,,2013-01-29 17:32:00,
2013-01-29 10:42:00,19.0,17.0,-100.00,South,179,15.0,18.0,91,-99.99,,,-99.99,,2013-01-29 17:42:00,
2013-01-29 10:52:00,19.0,17.0,-100.00,South,172,13.0,17.0,91,-99.99,,,-99.99,,2013-01-29 17:52:00,
2013-01-29 11:02:00,19.0,17.0,-100.00,South,181,16.0,16.0,91,-99.99,,,-99.99,,2013-01-29 18:02:00,
2013-01-29 11:11:00,19.0,17.0,-100.00,South,181,16.0,16.0,91,-99.99,,,-99.99,,2013-01-29 18:11:00,
2013-01-29 11:22:00,19.0,17.0,-100.00,South,181,16.0,16.0,91,-99.99,,,-99.99,,2013-01-29 18:22:00,
2013-01-29 11:42:00,20.0,18.0,-100.00,South,186,13.0,17.0,90,-99.99,,,-99.99,,2013-01-29 18:42:00,
2013-01-29 11:51:00,20.0,18.0,-100.00,South,186,13.0,17.0,90,-99.99,,,-99.99,,2013-01-29 18:51:00,
2013-01-29 12:02:00,20.0,18.0,-100.00,South,178,14.0,17.0,91,-99.99,,,-99.99,,2013-01-29 19:02:00,
2013-01-29 12:11:00,21.0,19.0,-100.00,South,178,14.0,18.0,91,-99.99,,,-99.99,,2013-01-29 19:11:00,
2013-01-29 12:22:00,21.0,19.0,-100.00,South,178,14.0,18.0,91,-99.99,,,-99.99,,2013-01-29 19:22:00,
2013-01-29 12:32:00,21.0,19.0,-100.00,South,182,16.0,19.0,91,-99.99,,,-99.99,,2013-01-29 19:32:00,
2013-01-29 12:42:00,21.0,19.0,-100.00,South,188,15.0,19.0,90,-99.99,,,-99.99,,2013-01-29 19:42:00,
2013-01-29 12:52:00,21.0,19.0,-100.00,South,182,19.0,19.0,90,-99.99,,,-99.99,,2013-01-29 19:52:00,
2013-01-29 13:01:00,21.0,19.0,-100.00,South,186,17.0,20.0,90,-99.99,,,-99.99,,2013-01-29 20:01:00,
2013-01-29 13:12:00,22.0,19.0,-100.00,South,191,12.0,18.0,90,-99.99,,,-99.99,,2013-01-29 20:12:00,
2013-01-29 13:22:00,22.0,19.0,-100.00,SSW,192,12.0,20.0,89,-99.99,,,-99.99,,2013-01-29 20:22:00,
2013-01-29 13:32:00,22.0,19.0,-100.00,South,188,14.0,18.0,89,-99.99,,,-99.99,,2013-01-29 20:32:00,
2013-01-29 13:42:00,22.0,19.0,-100.00,South,185,11.0,14.0,89,-99.99,,,-99.99,,2013-01-29 20:42:00,
2013-01-29 13:53:00,22.0,19.0,-100.00,South,185,11.0,14.0,89,-99.99,,,-99.99,,2013-01-29 20:53:00,
2013-01-29 14:02:00,22.0,19.0,-100.00,South,185,13.0,15.0,87,-99.99,,,-99.99,,2013-01-29 21:02:00,
2013-01-29 14:12:00,22.0,19.0,-100.00,South,185,13.0,15.0,87,-99.99,,,-99.99,,2013-01-29 21:12:00,
2013-01-29 14:21:00,22.0,19.0,-100.00,South,186,9.0,13.0,87,-99.99,,,-99.99,,2013-01-29 21:21:00,
2013-01-29 14:32:00,22.0,20.0,-100.00,South,184,8.0,13.0,88,-99.99,,,-99.99,,2013-01-29 21:32:00,
2013-01-29 14:42:00,22.0,19.0,-100.00,South,186,9.0,11.0,88,-99.99,,,-99.99,,2013-01-29 21:42:00,
2013-01-29 14:52:00,22.0,20.0,-100.00,South,182,10.0,12.0,90,-99.99,,,-99.99,,2013-01-29 21:52:00,
2013-01-29 15:01:00,22.0,20.0,-100.00,South,182,10.0,12.0,90,-99.99,,,-99.99,,2013-01-29 22:01:00,
2013-01-29 15:12:00,22.0,20.0,-100.00,South,177,10.0,13.0,90,-99.99,,,-99.99,,2013-01-29 22:12:00,
2013-01-29 15:21:00,22.0,20.0,-100.00,South,177,10.0,13.0,90,-99.99,,,-99.99,,2013-01-29 22:21:00,
2013-01-29 15:32:00,22.0,20.0,-100.00,South,177,10.0,13.0,90,-99.99,,,-99.99,,2013-01-29 22:32:00,
2013-01-29 15:42:00,22.0,20.0,-100.00,South,174,8.0,10.0,92,-99.99,,,-99.99,,2013-01-29 22:42:00,
2013-01-29 15:53:00,22.0,21.0,-100.00,South,178,6.0,9.0,93,-99.99,,,-99.99,,2013-01-29 22:53:00,
2013-01-29 16:02:00,22.0,20.0,-100.00,SSE,166,8.0,9.0,92,-99.99,,,-99.99,,2013-01-29 23:02:00,
2013-01-29 16:11:00,22.0,20.0,-100.00,SSE,159,7.0,8.0,92,-99.99,,,-99.99,,2013-01-29 23:11:00,
2013-01-29 16:22:00,22.0,21.0,-100.00,SSE,158,7.0,9.0,92,-99.99,,,-99.99,,2013-01-29 23:22:00,
2013-01-29 16:32:00,22.0,21.0,-100.00,South,170,8.0,9.0,92,-99.99,,,-99.99,,2013-01-29 23:32:00,
2013-01-29 16:42:00,22.0,20.0,-100.00,SSE,167,8.0,8.0,92,-99.99,,,-99.99,,2013-01-29 23:42:00,
2013-01-29 16:52:00,22.0,21.0,-100.00,South,173,6.0,7.0,92,-99.99,,,-99.99,,2013-01-29 23:52:00,
2013-01-29 17:02:00,22.0,21.0,-100.00,South,179,5.0,7.0,92,-99.99,,,-99.99,,2013-01-30 00:02:00,
2013-01-29 17:11:00,22.0,21.0,-100.00,South,184,5.0,6.0,92,-99.99,,,-99.99,,2013-01-30 00:11:00,
2013-01-29 17:21:00,22.0,20.0,-100.00,SSW,193,4.0,5.0,93,-99.99,,,-99.99,,2013-01-30 00:21:00,
2013-01-29 17:32:00,22.0,20.0,-100.00,South,176,4.0,4.0,93,-99.99,,,-99.99,,2013-01-30 00:32:00,
2013-01-29 17:42:00,22.0,20.0,-100.00,SSE,156,2.0,5.0,93,-99.99,,,-99.99,,2013-01-30 00:42:00,
2013-01-29 17:52:00,22.0,20.0,-100.00,SSE,167,2.0,3.0,93,-99.99,,,-99.99,,2013-01-30 00:52:00,
2013-01-29 18:01:00,22.0,20.0,-100.00,SSW,203,2.0,3.0,93,-99.99,,,-99.99,,2013-01-30 01:01:00,
2013-01-29 18:11:00,21.0,19.0,-100.00,ESE,120,2.0,2.0,92,-99.99,,,-99.99,,2013-01-30 01:11:00,
2013-01-29 18:22:00,20.0,18.0,-100.00,ESE,104,2.0,3.0,91,-99.99,,,-99.99,,2013-01-30 01:22:00,
2013-01-29 18:31:00,20.0,19.0,-100.00,ENE,74,0.0,2.0,94,-99.99,,,-99.99,,2013-01-30 01:31:00,
2013-01-29 18:42:00,22.0,20.0,-100.00,NNE,33,1.0,2.0,94,-99.99,,,-99.99,,2013-01-30 01:42:00,
2013-01-29 18:51:00,22.0,20.0,-100.00,ENE,60,0.0,2.0,92,-99.99,,,-99.99,,2013-01-30 01:51:00,
2013-01-29 19:01:00,22.0,20.0,-100.00,ENE,60,0.0,2.0,92,-99.99,,,-99.99,,2013-01-30 02:01:00,
2013-01-29 19:12:00,23.0,20.0,-100.00,NE,43,3.0,3.0,90,-99.99,,,-99.99,,2013-01-30 02:12:00,
2013-01-29 19:21:00,22.0,18.0,-100.00,ENE,64,1.0,3.0,86,-99.99,,,-99.99,,2013-01-30 02:21:00,
2013-01-29 19:33:00,21.0,18.0,-100.00,ENE,71,1.0,4.0,88,-99.99,,,-99.99,,2013-01-30 02:33:00,
2013-01-29 19:42:00,21.0,18.0,-100.00,ENE,71,1.0,4.0,88,-99.99,,,-99.99,,2013-01-30 02:42:00,
2013-01-29 19:52:00,21.0,18.0,-100.00,ESE,104,4.0,4.0,88,-99.99,,,-99.99,,2013-01-30 02:52:00,
2013-01-29 20:02:00,21.0,18.0,-100.00,ESE,122,3.0,4.0,88,-99.99,,,-99.99,,2013-01-30 03:02:00,
2013-01-29 20:11:00,21.0,19.0,-100.00,SE,125,1.0,3.0,88,-99.99,,,-99.99,,2013-01-30 03:11:00,
2013-01-29 20:21:00,21.0,18.0,-100.00,ESE,116,0.0,1.0,88,-99.99,,,-99.99,,2013-01-30 03:21:00,
2013-01-29 20:31:00,21.0,18.0,-100.00,ESE,116,0.0,1.0,88,-99.99,,,-99.99,,2013-01-30 03:31:00,
2013-01-29 20:41:00,22.0,20.0,-100.00,ESE,107,3.0,4.0,88,-99.99,,,-99.99,,2013-01-30 03:41:00,
2013-01-29 20:51:00,21.0,18.0,-100.00,SSE,167,3.0,5.0,87,-99.99,,,-99.99,,2013-01-30 03:51:00,
2013-01-29 21:02:00,21.0,18.0,-100.00,ESE,119,2.0,5.0,88,-99.99,,,-99.99,,2013-01-30 04:02:00,
2013-01-29 21:11:00,24.0,21.0,-100.00,East,86,1.0,4.0,88,-99.99,,,-99.99,,2013-01-30 04:11:00,
2013-01-29 21:21:00,24.0,21.0,-100.00,East,86,1.0,4.0,88,-99.99,,,-99.99,,2013-01-30 04:21:00,
2013-01-29 21:31:00,22.0,20.0,-100.00,ENE,63,2.0,2.0,90,-99.99,,,-99.99,,2013-01-30 04:31:00,
2013-01-29 21:41:00,22.0,20.0,-100.00,ENE,63,2.0,2.0,90,-99.99,,,-99.99,,2013-01-30 04:41:00,
2013-01-29 21:51:00,23.0,21.0,-100.00,NE,51,2.0,2.0,91,-99.99,,,-99.99,,2013-01-30 04:51:00,
2013-01-29 22:03:00,24.0,21.0,-100.00,East,80,5.0,5.0,89,-99.99,,,-99.99,,2013-01-30 05:03:00,
2013-01-29 22:11:00,24.0,21.0,-100.00,ENE,77,5.0,5.0,89,-99.99,,,-99.99,,2013-01-30 05:11:00,
2013-01-29 22:22:00,24.0,21.0,-100.00,East,86,4.0,5.0,88,-99.99,,,-99.99,,2013-01-30 05:22:00,
2013-01-29 22:32:00,23.0,20.0,-100.00,SSE,147,1.0,3.0,88,-99.99,,,-99.99,,2013-01-30 05:32:00,
2013-01-29 22:42:00,23.0,20.0,-100.00,SSE,147,1.0,3.0,88,-99.99,,,-99.99,,2013-01-30 05:42:00,
2013-01-29 22:52:00,22.0,20.0,-100.00,SSE,157,5.0,6.0,91,-99.99,,,-99.99,,2013-01-30 05:52:00,
2013-01-29 23:02:00,22.0,20.0,-100.00,SSE,157,5.0,6.0,91,-99.99,,,-99.99,,2013-01-30 06:02:00,
2013-01-29 23:11:00,20.0,18.0,-100.00,South,174,7.0,9.0,90,-99.99,,,-99.99,,2013-01-30 06:11:00,
2013-01-29 23:21:00,20.0,18.0,-100.00,South,174,7.0,9.0,90,-99.99,,,-99.99,,2013-01-30 06:21:00,
2013-01-29 23:31:00,21.0,19.0,-100.00,SSE,159,7.0,7.0,92,-99.99,,,-99.99,,2013-01-30 06:31:00,
2013-01-29 23:41:00,21.0,19.0,-100.00,SSE,159,7.0,7.0,92,-99.99,,,-99.99,,2013-01-30 06:41:00,
2013-01-29 23:51:00,21.0,19.0,-100.00,SE,134,5.0,7.0,92,-99.99,,,-99.99,,2013-01-30 06:51:00,